Year,Month,Day,Hour,Minute,Value (Times are PST for temperature in C)
2017,08,03,00,00,28.50
2017,08,03,00,01,28.50
2017,08,03,00,02,28.40
2017,08,03,00,03,28.40
2017,08,03,00,04,28.40
2017,08,03,00,05,28.30
2017,08,03,00,06,28.20
2017,08,03,00,07,28.20
2017,08,03,00,08,28.10
2017,08,03,00,09,28.10
2017,08,03,00,10,28.10
2017,08,03,00,11,28.00
2017,08,03,00,12,28.00
2017,08,03,00,13,27.90
2017,08,03,00,14,27.90
2017,08,03,00,15,27.80
2017,08,03,00,16,27.80
2017,08,03,00,17,27.80
2017,08,03,00,18,27.80
2017,08,03,00,19,27.80
2017,08,03,00,20,27.80
2017,08,03,00,21,27.90
2017,08,03,00,22,27.90
2017,08,03,00,23,27.80
2017,08,03,00,24,27.80
2017,08,03,00,25,27.70
2017,08,03,00,26,27.70
2017,08,03,00,27,27.70
2017,08,03,00,28,27.60
2017,08,03,00,29,27.60
2017,08,03,00,30,27.60
2017,08,03,00,31,27.60
2017,08,03,00,32,27.50
2017,08,03,00,33,27.50
2017,08,03,00,34,27.40
2017,08,03,00,35,27.40
2017,08,03,00,36,27.40
2017,08,03,00,37,27.40
2017,08,03,00,38,27.40
2017,08,03,00,39,27.30
2017,08,03,00,40,27.30
2017,08,03,00,41,27.20
2017,08,03,00,42,27.10
2017,08,03,00,43,27.10
2017,08,03,00,44,27.10
2017,08,03,00,45,27.00
2017,08,03,00,46,27.00
2017,08,03,00,47,27.00
2017,08,03,00,48,26.90
2017,08,03,00,49,26.90
2017,08,03,00,50,26.90
2017,08,03,00,51,26.90
2017,08,03,00,52,26.80
2017,08,03,00,53,26.80
2017,08,03,00,54,26.70
2017,08,03,00,55,26.70
2017,08,03,00,56,26.60
2017,08,03,00,57,26.60
2017,08,03,00,58,26.50
2017,08,03,00,59,26.40
2017,08,03,01,00,26.40
2017,08,03,01,01,26.40
2017,08,03,01,02,26.30
2017,08,03,01,03,26.30
2017,08,03,01,04,26.30
2017,08,03,01,05,26.30
2017,08,03,01,06,26.30
2017,08,03,01,07,26.30
2017,08,03,01,08,26.30
2017,08,03,01,09,26.30
2017,08,03,01,10,26.30
2017,08,03,01,11,26.30
2017,08,03,01,12,26.30
2017,08,03,01,13,26.20
2017,08,03,01,14,26.20
2017,08,03,01,15,26.20
2017,08,03,01,16,26.10
2017,08,03,01,17,26.10
2017,08,03,01,18,26.00
2017,08,03,01,19,26.00
2017,08,03,01,20,26.00
2017,08,03,01,21,26.00
2017,08,03,01,22,26.00
2017,08,03,01,23,26.00
2017,08,03,01,24,26.00
2017,08,03,01,25,26.00
2017,08,03,01,26,26.00
2017,08,03,01,27,26.00
2017,08,03,01,28,25.90
2017,08,03,01,29,25.90
2017,08,03,01,30,25.90
2017,08,03,01,31,25.90
2017,08,03,01,32,25.90
2017,08,03,01,33,25.80
2017,08,03,01,34,25.80
2017,08,03,01,35,25.80
2017,08,03,01,36,25.80
2017,08,03,01,37,25.70
2017,08,03,01,38,25.70
2017,08,03,01,39,25.70
2017,08,03,01,40,25.60
2017,08,03,01,41,25.60
2017,08,03,01,42,25.60
2017,08,03,01,43,25.60
2017,08,03,01,44,25.60
2017,08,03,01,45,25.60
2017,08,03,01,46,25.60
2017,08,03,01,47,25.70
2017,08,03,01,48,25.70
2017,08,03,01,49,25.70
2017,08,03,01,50,25.70
2017,08,03,01,51,25.70
2017,08,03,01,52,25.70
2017,08,03,01,53,25.70
2017,08,03,01,54,25.70
2017,08,03,01,55,25.70
2017,08,03,01,56,25.70
2017,08,03,01,57,25.60
2017,08,03,01,58,25.60
2017,08,03,01,59,25.60
2017,08,03,02,00,25.60
2017,08,03,02,01,25.60
2017,08,03,02,02,25.50
2017,08,03,02,03,25.50
2017,08,03,02,04,25.50
2017,08,03,02,05,25.50
2017,08,03,02,06,25.40
2017,08,03,02,07,25.30
2017,08,03,02,08,25.30
2017,08,03,02,09,25.30
2017,08,03,02,10,25.30
2017,08,03,02,11,25.20
2017,08,03,02,12,25.10
2017,08,03,02,13,25.00
2017,08,03,02,14,24.90
2017,08,03,02,15,24.90
2017,08,03,02,16,24.80
2017,08,03,02,17,24.70
2017,08,03,02,18,24.70
2017,08,03,02,19,24.60
2017,08,03,02,20,24.50
2017,08,03,02,21,24.40
2017,08,03,02,22,24.30
2017,08,03,02,23,24.30
2017,08,03,02,24,24.30
2017,08,03,02,25,24.30
2017,08,03,02,26,24.30
2017,08,03,02,27,24.40
2017,08,03,02,28,24.50
2017,08,03,02,29,24.60
2017,08,03,02,30,24.60
2017,08,03,02,31,24.70
2017,08,03,02,32,24.60
2017,08,03,02,33,24.50
2017,08,03,02,34,24.40
2017,08,03,02,35,24.30
2017,08,03,02,36,24.10
2017,08,03,02,37,23.90
2017,08,03,02,38,23.80
2017,08,03,02,39,23.70
2017,08,03,02,40,23.60
2017,08,03,02,41,23.50
2017,08,03,02,42,23.40
2017,08,03,02,43,23.40
2017,08,03,02,44,23.40
2017,08,03,02,45,23.30
2017,08,03,02,46,23.30
2017,08,03,02,47,23.30
2017,08,03,02,48,23.30
2017,08,03,02,49,23.30
2017,08,03,02,50,23.30
2017,08,03,02,51,23.40
2017,08,03,02,52,23.40
2017,08,03,02,53,23.60
2017,08,03,02,54,23.70
2017,08,03,02,55,23.80
2017,08,03,02,56,23.90
2017,08,03,02,57,24.00
2017,08,03,02,58,24.10
2017,08,03,02,59,24.20
2017,08,03,03,00,24.20
2017,08,03,03,01,24.30
2017,08,03,03,02,24.30
2017,08,03,03,03,24.30
2017,08,03,03,04,24.30
2017,08,03,03,05,24.30
2017,08,03,03,06,24.30
2017,08,03,03,07,24.30
2017,08,03,03,08,24.20
2017,08,03,03,09,24.10
2017,08,03,03,10,24.10
2017,08,03,03,11,24.00
2017,08,03,03,12,24.00
2017,08,03,03,13,23.90
2017,08,03,03,14,23.80
2017,08,03,03,15,23.80
2017,08,03,03,16,23.70
2017,08,03,03,17,23.70
2017,08,03,03,18,23.70
2017,08,03,03,19,23.70
2017,08,03,03,20,23.70
2017,08,03,03,21,23.70
2017,08,03,03,22,23.70
2017,08,03,03,23,23.70
2017,08,03,03,24,23.70
2017,08,03,03,25,23.70
2017,08,03,03,26,23.70
2017,08,03,03,27,23.80
2017,08,03,03,28,23.80
2017,08,03,03,29,23.80
2017,08,03,03,30,23.80
2017,08,03,03,31,23.80
2017,08,03,03,32,23.80
2017,08,03,03,33,23.70
2017,08,03,03,34,23.70
2017,08,03,03,35,23.60
2017,08,03,03,36,23.60
2017,08,03,03,37,23.50
2017,08,03,03,38,23.40
2017,08,03,03,39,23.40
2017,08,03,03,40,23.30
2017,08,03,03,41,23.30
2017,08,03,03,42,23.20
2017,08,03,03,43,23.30
2017,08,03,03,44,23.30
2017,08,03,03,45,23.30
2017,08,03,03,46,23.30
2017,08,03,03,47,23.50
2017,08,03,03,48,23.60
2017,08,03,03,49,23.70
2017,08,03,03,50,23.70
2017,08,03,03,51,23.70
2017,08,03,03,52,23.80
2017,08,03,03,53,23.80
2017,08,03,03,54,23.80
2017,08,03,03,55,23.80
2017,08,03,03,56,23.80
2017,08,03,03,57,23.80
2017,08,03,03,58,23.80
2017,08,03,03,59,23.80
2017,08,03,04,00,23.80
2017,08,03,04,01,23.70
2017,08,03,04,02,23.70
2017,08,03,04,03,23.70
2017,08,03,04,04,23.60
2017,08,03,04,05,23.50
2017,08,03,04,06,23.40
2017,08,03,04,07,23.30
2017,08,03,04,08,23.20
2017,08,03,04,09,23.10
2017,08,03,04,10,23.10
2017,08,03,04,11,23.00
2017,08,03,04,12,22.90
2017,08,03,04,13,22.90
2017,08,03,04,14,22.80
2017,08,03,04,15,22.80
2017,08,03,04,16,22.80
2017,08,03,04,17,22.70
2017,08,03,04,18,22.70
2017,08,03,04,19,22.60
2017,08,03,04,20,22.60
2017,08,03,04,21,22.50
2017,08,03,04,22,22.50
2017,08,03,04,23,22.50
2017,08,03,04,24,22.40
2017,08,03,04,25,22.40
2017,08,03,04,26,22.40
2017,08,03,04,27,22.50
2017,08,03,04,28,22.40
2017,08,03,04,29,22.40
2017,08,03,04,30,22.30
2017,08,03,04,31,22.30
2017,08,03,04,32,22.30
2017,08,03,04,33,22.20
2017,08,03,04,34,22.20
2017,08,03,04,35,22.30
2017,08,03,04,36,22.30
2017,08,03,04,37,22.40
2017,08,03,04,38,22.40
2017,08,03,04,39,22.50
2017,08,03,04,40,22.60
2017,08,03,04,41,22.80
2017,08,03,04,42,22.90
2017,08,03,04,43,22.90
2017,08,03,04,44,22.90
2017,08,03,04,45,22.90
2017,08,03,04,46,22.90
2017,08,03,04,47,22.90
2017,08,03,04,48,22.90
2017,08,03,04,49,22.90
2017,08,03,04,50,22.90
2017,08,03,04,51,22.90
2017,08,03,04,52,22.90
2017,08,03,04,53,22.90
2017,08,03,04,54,23.00
2017,08,03,04,55,23.00
2017,08,03,04,56,23.00
2017,08,03,04,57,23.00
2017,08,03,04,58,23.10
2017,08,03,04,59,23.10
2017,08,03,05,00,23.00
2017,08,03,05,01,23.00
2017,08,03,05,02,23.00
2017,08,03,05,03,22.90
2017,08,03,05,04,22.80
2017,08,03,05,05,22.80
2017,08,03,05,06,22.80
2017,08,03,05,07,22.80
2017,08,03,05,08,22.80
2017,08,03,05,09,22.80
2017,08,03,05,10,22.80
2017,08,03,05,11,22.80
2017,08,03,05,12,22.80
2017,08,03,05,13,22.80
2017,08,03,05,14,22.70
2017,08,03,05,15,22.80
2017,08,03,05,16,22.80
2017,08,03,05,17,22.80
2017,08,03,05,18,22.80
2017,08,03,05,19,22.90
2017,08,03,05,20,23.00
2017,08,03,05,21,23.10
2017,08,03,05,22,23.10
2017,08,03,05,23,23.20
2017,08,03,05,24,23.20
2017,08,03,05,25,23.20
2017,08,03,05,26,23.20
2017,08,03,05,27,23.20
2017,08,03,05,28,23.20
2017,08,03,05,29,23.20
2017,08,03,05,30,23.20
2017,08,03,05,31,23.10
2017,08,03,05,32,23.10
2017,08,03,05,33,23.00
2017,08,03,05,34,22.90
2017,08,03,05,35,22.80
2017,08,03,05,36,22.60
2017,08,03,05,37,22.50
2017,08,03,05,38,22.50
2017,08,03,05,39,22.40
2017,08,03,05,40,22.50
2017,08,03,05,41,22.50
2017,08,03,05,42,22.60
2017,08,03,05,43,22.70
2017,08,03,05,44,22.70
2017,08,03,05,45,22.80
2017,08,03,05,46,22.80
2017,08,03,05,47,22.90
2017,08,03,05,48,22.90
2017,08,03,05,49,22.90
2017,08,03,05,50,22.80
2017,08,03,05,51,22.80
2017,08,03,05,52,22.70
2017,08,03,05,53,22.70
2017,08,03,05,54,22.60
2017,08,03,05,55,22.60
2017,08,03,05,56,22.50
2017,08,03,05,57,22.50
2017,08,03,05,58,22.60
2017,08,03,05,59,22.60
2017,08,03,06,00,22.60
2017,08,03,06,01,22.60
2017,08,03,06,02,22.60
2017,08,03,06,03,22.60
2017,08,03,06,04,22.60
2017,08,03,06,05,22.60
2017,08,03,06,06,22.60
2017,08,03,06,07,22.70
2017,08,03,06,08,22.60
2017,08,03,06,09,22.60
2017,08,03,06,10,22.60
2017,08,03,06,11,22.60
2017,08,03,06,12,22.60
2017,08,03,06,13,22.60
2017,08,03,06,14,22.60
2017,08,03,06,15,22.60
2017,08,03,06,16,22.60
2017,08,03,06,17,22.60
2017,08,03,06,18,22.60
2017,08,03,06,19,22.60
2017,08,03,06,20,22.60
2017,08,03,06,21,22.50
2017,08,03,06,22,22.50
2017,08,03,06,23,22.50
2017,08,03,06,24,22.50
2017,08,03,06,25,22.50
2017,08,03,06,26,22.40
2017,08,03,06,27,22.40
2017,08,03,06,28,22.40
2017,08,03,06,29,22.40
2017,08,03,06,30,22.40
2017,08,03,06,31,22.40
2017,08,03,06,32,22.40
2017,08,03,06,33,22.40
2017,08,03,06,34,22.40
2017,08,03,06,35,22.40
2017,08,03,06,36,22.40
2017,08,03,06,37,22.40
2017,08,03,06,38,22.40
2017,08,03,06,39,22.40
2017,08,03,06,40,22.40
2017,08,03,06,41,22.40
2017,08,03,06,42,22.40
2017,08,03,06,43,22.50
2017,08,03,06,44,22.50
2017,08,03,06,45,22.50
2017,08,03,06,46,22.50
2017,08,03,06,47,22.50
2017,08,03,06,48,22.50
2017,08,03,06,49,22.60
2017,08,03,06,50,22.60
2017,08,03,06,51,22.60
2017,08,03,06,52,22.60
2017,08,03,06,53,22.60
2017,08,03,06,54,22.60
2017,08,03,06,55,22.60
2017,08,03,06,56,22.60
2017,08,03,06,57,22.60
2017,08,03,06,58,22.60
2017,08,03,06,59,22.60
2017,08,03,07,00,22.60
2017,08,03,07,01,22.60
2017,08,03,07,02,22.60
2017,08,03,07,03,22.60
2017,08,03,07,04,22.60
2017,08,03,07,05,22.70
2017,08,03,07,06,22.70
2017,08,03,07,07,22.70
2017,08,03,07,08,22.70
2017,08,03,07,09,22.70
2017,08,03,07,10,22.70
2017,08,03,07,11,22.70
2017,08,03,07,12,22.70
2017,08,03,07,13,22.70
2017,08,03,07,14,22.70
2017,08,03,07,15,22.70
2017,08,03,07,16,22.70
2017,08,03,07,17,22.60
2017,08,03,07,18,22.60
2017,08,03,07,19,22.60
2017,08,03,07,20,22.60
2017,08,03,07,21,22.60
2017,08,03,07,22,22.60
2017,08,03,07,23,22.60
2017,08,03,07,24,22.60
2017,08,03,07,25,22.60
2017,08,03,07,26,22.60
2017,08,03,07,27,22.60
2017,08,03,07,28,22.60
2017,08,03,07,29,22.60
2017,08,03,07,30,22.60
2017,08,03,07,31,22.60
2017,08,03,07,32,22.60
2017,08,03,07,33,22.60
2017,08,03,07,34,22.60
2017,08,03,07,35,22.60
2017,08,03,07,36,22.60
2017,08,03,07,37,22.60
2017,08,03,07,38,22.60
2017,08,03,07,39,22.60
2017,08,03,07,40,22.60
2017,08,03,07,41,22.60
2017,08,03,07,42,22.60
2017,08,03,07,43,22.60
2017,08,03,07,44,22.70
2017,08,03,07,45,22.70
2017,08,03,07,46,22.70
2017,08,03,07,47,22.80
2017,08,03,07,48,22.80
2017,08,03,07,49,22.80
2017,08,03,07,50,22.90
2017,08,03,07,51,22.90
2017,08,03,07,52,22.90
2017,08,03,07,53,23.00
2017,08,03,07,54,23.00
2017,08,03,07,55,23.10
2017,08,03,07,56,23.10
2017,08,03,07,57,23.10
2017,08,03,07,58,23.10
2017,08,03,07,59,23.20
2017,08,03,08,00,23.20
2017,08,03,08,01,23.20
2017,08,03,08,02,23.30
2017,08,03,08,03,23.30
2017,08,03,08,04,23.30
2017,08,03,08,05,23.30
2017,08,03,08,06,23.30
2017,08,03,08,07,23.30
2017,08,03,08,08,23.30
2017,08,03,08,09,23.30
2017,08,03,08,10,23.40
2017,08,03,08,11,23.40
2017,08,03,08,12,23.40
2017,08,03,08,13,23.50
2017,08,03,08,14,23.50
2017,08,03,08,15,23.60
2017,08,03,08,16,23.60
2017,08,03,08,17,23.60
2017,08,03,08,18,23.70
2017,08,03,08,19,23.70
2017,08,03,08,20,23.70
2017,08,03,08,21,23.70
2017,08,03,08,22,23.80
2017,08,03,08,23,23.80
2017,08,03,08,24,23.80
2017,08,03,08,25,23.80
2017,08,03,08,26,23.90
2017,08,03,08,27,23.90
2017,08,03,08,28,24.00
2017,08,03,08,29,24.00
2017,08,03,08,30,24.10
2017,08,03,08,31,24.10
2017,08,03,08,32,24.20
2017,08,03,08,33,24.20
2017,08,03,08,34,24.20
2017,08,03,08,35,24.30
2017,08,03,08,36,24.30
2017,08,03,08,37,24.30
2017,08,03,08,38,24.40
2017,08,03,08,39,24.40
2017,08,03,08,40,24.50
2017,08,03,08,41,24.50
2017,08,03,08,42,24.50
2017,08,03,08,43,24.50
2017,08,03,08,44,24.60
2017,08,03,08,45,24.60
2017,08,03,08,46,24.70
2017,08,03,08,47,24.70
2017,08,03,08,48,24.80
2017,08,03,08,49,24.90
2017,08,03,08,50,24.90
2017,08,03,08,51,25.00
2017,08,03,08,52,25.10
2017,08,03,08,53,25.10
2017,08,03,08,54,25.20
2017,08,03,08,55,25.20
2017,08,03,08,56,25.30
2017,08,03,08,57,25.30
2017,08,03,08,58,25.30
2017,08,03,08,59,25.40
2017,08,03,09,00,25.40
2017,08,03,09,01,25.50
2017,08,03,09,02,25.50
2017,08,03,09,03,25.60
2017,08,03,09,04,25.70
2017,08,03,09,05,25.80
2017,08,03,09,06,25.80
2017,08,03,09,07,25.90
2017,08,03,09,08,25.90
2017,08,03,09,09,25.90
2017,08,03,09,10,25.90
2017,08,03,09,11,25.90
2017,08,03,09,12,25.90
2017,08,03,09,13,25.90
2017,08,03,09,14,26.00
2017,08,03,09,15,26.10
2017,08,03,09,16,26.10
2017,08,03,09,17,26.20
2017,08,03,09,18,26.20
2017,08,03,09,19,26.30
2017,08,03,09,20,26.30
2017,08,03,09,21,26.40
2017,08,03,09,22,26.40
2017,08,03,09,23,26.40
2017,08,03,09,24,26.40
2017,08,03,09,25,26.40
2017,08,03,09,26,26.40
2017,08,03,09,27,26.40
2017,08,03,09,28,26.40
2017,08,03,09,29,26.40
2017,08,03,09,30,26.40
2017,08,03,09,31,26.30
2017,08,03,09,32,26.30
2017,08,03,09,33,26.30
2017,08,03,09,34,26.30
2017,08,03,09,35,26.30
2017,08,03,09,36,26.30
2017,08,03,09,37,26.30
2017,08,03,09,38,26.30
2017,08,03,09,39,26.40
2017,08,03,09,40,26.40
2017,08,03,09,41,26.40
2017,08,03,09,42,26.50
2017,08,03,09,43,26.50
2017,08,03,09,44,26.50
2017,08,03,09,45,26.50
2017,08,03,09,46,26.50
2017,08,03,09,47,26.50
2017,08,03,09,48,26.40
2017,08,03,09,49,26.40
2017,08,03,09,50,26.50
2017,08,03,09,51,26.50
2017,08,03,09,52,26.60
2017,08,03,09,53,26.60
2017,08,03,09,54,26.70
2017,08,03,09,55,26.80
2017,08,03,09,56,26.80
2017,08,03,09,57,26.90
2017,08,03,09,58,26.90
2017,08,03,09,59,26.90
2017,08,03,10,00,27.00
2017,08,03,10,01,27.00
2017,08,03,10,02,27.10
2017,08,03,10,03,27.10
2017,08,03,10,04,27.10
2017,08,03,10,05,27.20
2017,08,03,10,06,27.20
2017,08,03,10,07,27.20
2017,08,03,10,08,27.20
2017,08,03,10,09,27.20
2017,08,03,10,10,27.20
2017,08,03,10,11,27.30
2017,08,03,10,12,27.30
2017,08,03,10,13,27.30
2017,08,03,10,14,27.30
2017,08,03,10,15,27.30
2017,08,03,10,16,27.30
2017,08,03,10,17,27.30
2017,08,03,10,18,27.30
2017,08,03,10,19,27.40
2017,08,03,10,20,27.40
2017,08,03,10,21,27.50
2017,08,03,10,22,27.50
2017,08,03,10,23,27.50
2017,08,03,10,24,27.60
2017,08,03,10,25,27.60
2017,08,03,10,26,27.50
2017,08,03,10,27,27.50
2017,08,03,10,28,27.50
2017,08,03,10,29,27.60
2017,08,03,10,30,27.60
2017,08,03,10,31,27.50
2017,08,03,10,32,27.50
2017,08,03,10,33,27.50
2017,08,03,10,34,27.50
2017,08,03,10,35,27.60
2017,08,03,10,36,27.60
2017,08,03,10,37,27.60
2017,08,03,10,38,27.50
2017,08,03,10,39,27.50
2017,08,03,10,40,27.60
2017,08,03,10,41,27.60
2017,08,03,10,42,27.70
2017,08,03,10,43,27.80
2017,08,03,10,44,27.90
2017,08,03,10,45,28.00
2017,08,03,10,46,28.10
2017,08,03,10,47,28.20
2017,08,03,10,48,28.30
2017,08,03,10,49,28.30
2017,08,03,10,50,28.30
2017,08,03,10,51,28.40
2017,08,03,10,52,28.40
2017,08,03,10,53,28.50
2017,08,03,10,54,28.60
2017,08,03,10,55,28.60
2017,08,03,10,56,28.60
2017,08,03,10,57,28.60
2017,08,03,10,58,28.70
2017,08,03,10,59,28.60
2017,08,03,11,00,28.60
2017,08,03,11,01,28.60
2017,08,03,11,02,28.60
2017,08,03,11,03,28.60
2017,08,03,11,04,28.60
2017,08,03,11,05,28.60
2017,08,03,11,06,28.60
2017,08,03,11,07,28.70
2017,08,03,11,08,28.70
2017,08,03,11,09,28.70
2017,08,03,11,10,28.70
2017,08,03,11,11,28.70
2017,08,03,11,12,28.70
2017,08,03,11,13,28.80
2017,08,03,11,14,28.80
2017,08,03,11,15,28.80
2017,08,03,11,16,28.90
2017,08,03,11,17,28.90
2017,08,03,11,18,28.90
2017,08,03,11,19,29.00
2017,08,03,11,20,29.10
2017,08,03,11,21,29.10
2017,08,03,11,22,29.20
2017,08,03,11,23,29.20
2017,08,03,11,24,29.30
2017,08,03,11,25,29.30
2017,08,03,11,26,29.30
2017,08,03,11,27,29.40
2017,08,03,11,28,29.40
2017,08,03,11,29,29.40
2017,08,03,11,30,29.50
2017,08,03,11,31,29.50
2017,08,03,11,32,29.50
2017,08,03,11,33,29.60
2017,08,03,11,34,29.60
2017,08,03,11,35,29.60
2017,08,03,11,36,29.60
2017,08,03,11,37,29.60
2017,08,03,11,38,29.60
2017,08,03,11,39,29.60
2017,08,03,11,40,29.70
2017,08,03,11,41,29.60
2017,08,03,11,42,29.60
2017,08,03,11,43,29.50
2017,08,03,11,44,29.40
2017,08,03,11,45,29.40
2017,08,03,11,46,29.30
2017,08,03,11,47,29.30
2017,08,03,11,48,29.40
2017,08,03,11,49,29.50
2017,08,03,11,50,29.60
2017,08,03,11,51,29.70
2017,08,03,11,52,29.80
2017,08,03,11,53,29.80
2017,08,03,11,54,29.80
2017,08,03,11,55,29.80
2017,08,03,11,56,29.80
2017,08,03,11,57,29.90
2017,08,03,11,58,30.00
2017,08,03,11,59,30.10
2017,08,03,12,00,30.10
2017,08,03,12,01,30.10
2017,08,03,12,02,30.20
2017,08,03,12,03,30.30
2017,08,03,12,04,30.30
2017,08,03,12,05,30.30
2017,08,03,12,06,30.30
2017,08,03,12,07,30.20
2017,08,03,12,08,30.20
2017,08,03,12,09,30.20
2017,08,03,12,10,30.10
2017,08,03,12,11,30.10
2017,08,03,12,12,30.20
2017,08,03,12,13,30.20
2017,08,03,12,14,30.10
2017,08,03,12,15,30.00
2017,08,03,12,16,29.90
2017,08,03,12,17,29.70
2017,08,03,12,18,29.60
2017,08,03,12,19,29.50
2017,08,03,12,20,29.50
2017,08,03,12,21,29.40
2017,08,03,12,22,29.40
2017,08,03,12,23,29.40
2017,08,03,12,24,29.30
2017,08,03,12,25,29.20
2017,08,03,12,26,29.20
2017,08,03,12,27,29.10
2017,08,03,12,28,29.00
2017,08,03,12,29,28.90
2017,08,03,12,30,29.00
2017,08,03,12,31,29.10
2017,08,03,12,32,29.20
2017,08,03,12,33,29.20
2017,08,03,12,34,29.30
2017,08,03,12,35,29.40
2017,08,03,12,36,29.50
2017,08,03,12,37,29.50
2017,08,03,12,38,29.70
2017,08,03,12,39,29.90
2017,08,03,12,40,30.00
2017,08,03,12,41,30.10
2017,08,03,12,42,30.30
2017,08,03,12,43,30.30
2017,08,03,12,44,30.10
2017,08,03,12,45,30.10
2017,08,03,12,46,30.10
2017,08,03,12,47,30.20
2017,08,03,12,48,30.40
2017,08,03,12,49,30.40
2017,08,03,12,50,30.40
2017,08,03,12,51,30.40
2017,08,03,12,52,30.40
2017,08,03,12,53,30.30
2017,08,03,12,54,30.30
2017,08,03,12,55,30.30
2017,08,03,12,56,30.30
2017,08,03,12,57,30.20
2017,08,03,12,58,30.10
2017,08,03,12,59,30.00
2017,08,03,13,00,29.90
2017,08,03,13,01,29.90
2017,08,03,13,02,29.80
2017,08,03,13,03,29.80
2017,08,03,13,04,29.70
2017,08,03,13,05,29.70
2017,08,03,13,06,29.70
2017,08,03,13,07,29.70
2017,08,03,13,08,29.60
2017,08,03,13,09,29.60
2017,08,03,13,10,29.60
2017,08,03,13,11,29.70
2017,08,03,13,12,29.70
2017,08,03,13,13,29.80
2017,08,03,13,14,29.80
2017,08,03,13,15,29.90
2017,08,03,13,16,30.00
2017,08,03,13,17,30.20
2017,08,03,13,18,30.20
2017,08,03,13,19,30.30
2017,08,03,13,20,30.30
2017,08,03,13,21,30.30
2017,08,03,13,22,30.30
2017,08,03,13,23,30.30
2017,08,03,13,24,30.30
2017,08,03,13,25,30.20
2017,08,03,13,26,30.20
2017,08,03,13,27,30.10
2017,08,03,13,28,30.20
2017,08,03,13,29,30.30
2017,08,03,13,30,30.40
2017,08,03,13,31,30.40
2017,08,03,13,32,30.30
2017,08,03,13,33,30.30
2017,08,03,13,34,30.20
2017,08,03,13,35,30.20
2017,08,03,13,36,30.30
2017,08,03,13,37,30.30
2017,08,03,13,38,30.20
2017,08,03,13,39,30.20
2017,08,03,13,40,30.10
2017,08,03,13,41,30.10
2017,08,03,13,42,30.20
2017,08,03,13,43,30.20
2017,08,03,13,44,30.20
2017,08,03,13,45,30.30
2017,08,03,13,46,30.30
2017,08,03,13,47,30.30
2017,08,03,13,48,30.40
2017,08,03,13,49,30.40
2017,08,03,13,50,30.40
2017,08,03,13,51,30.40
2017,08,03,13,52,30.40
2017,08,03,13,53,30.40
2017,08,03,13,54,30.40
2017,08,03,13,55,30.40
2017,08,03,13,56,30.50
2017,08,03,13,57,30.50
2017,08,03,13,58,30.40
2017,08,03,13,59,30.40
2017,08,03,14,00,30.40
2017,08,03,14,01,30.40
2017,08,03,14,02,30.40
2017,08,03,14,03,30.40
2017,08,03,14,04,30.50
2017,08,03,14,05,30.40
2017,08,03,14,06,30.50
2017,08,03,14,07,30.50
2017,08,03,14,08,30.40
2017,08,03,14,09,30.40
2017,08,03,14,10,30.40
2017,08,03,14,11,30.30
2017,08,03,14,12,30.30
2017,08,03,14,13,30.30
2017,08,03,14,14,30.40
2017,08,03,14,15,30.40
2017,08,03,14,16,30.50
2017,08,03,14,17,30.50
2017,08,03,14,18,30.60
2017,08,03,14,19,30.60
2017,08,03,14,20,30.50
2017,08,03,14,21,30.50
2017,08,03,14,22,30.50
2017,08,03,14,23,30.40
2017,08,03,14,24,30.40
2017,08,03,14,25,30.50
2017,08,03,14,26,30.50
2017,08,03,14,27,30.50
2017,08,03,14,28,30.50
2017,08,03,14,29,30.60
2017,08,03,14,30,30.60
2017,08,03,14,31,30.70
2017,08,03,14,32,30.70
2017,08,03,14,33,30.70
2017,08,03,14,34,30.80
2017,08,03,14,35,30.80
2017,08,03,14,36,30.80
2017,08,03,14,37,31.00
2017,08,03,14,38,31.10
2017,08,03,14,39,31.20
2017,08,03,14,40,31.30
2017,08,03,14,41,31.40
2017,08,03,14,42,31.40
2017,08,03,14,43,31.40
2017,08,03,14,44,31.40
2017,08,03,14,45,31.40
2017,08,03,14,46,31.40
2017,08,03,14,47,31.30
2017,08,03,14,48,31.20
2017,08,03,14,49,31.10
2017,08,03,14,50,31.00
2017,08,03,14,51,30.90
2017,08,03,14,52,30.90
2017,08,03,14,53,30.90
2017,08,03,14,54,30.90
2017,08,03,14,55,30.80
2017,08,03,14,56,30.60
2017,08,03,14,57,30.50
2017,08,03,14,58,30.40
2017,08,03,14,59,30.30
2017,08,03,15,00,30.30
2017,08,03,15,01,30.40
2017,08,03,15,02,30.40
2017,08,03,15,03,30.40
2017,08,03,15,04,30.30
2017,08,03,15,05,30.30
2017,08,03,15,06,30.30
2017,08,03,15,07,30.30
2017,08,03,15,08,30.20
2017,08,03,15,09,30.10
2017,08,03,15,10,30.00
2017,08,03,15,11,29.90
2017,08,03,15,12,29.70
2017,08,03,15,13,29.60
2017,08,03,15,14,29.60
2017,08,03,15,15,29.50
2017,08,03,15,16,29.40
2017,08,03,15,17,29.40
2017,08,03,15,18,29.40
2017,08,03,15,19,29.40
2017,08,03,15,20,29.50
2017,08,03,15,21,29.60
2017,08,03,15,22,29.60
2017,08,03,15,23,29.60
2017,08,03,15,24,29.60
2017,08,03,15,25,29.50
2017,08,03,15,26,29.50
2017,08,03,15,27,29.50
2017,08,03,15,28,29.40
2017,08,03,15,29,29.30
2017,08,03,15,30,29.40
2017,08,03,15,31,29.40
2017,08,03,15,32,29.40
2017,08,03,15,33,29.40
2017,08,03,15,34,29.40
2017,08,03,15,35,29.50
2017,08,03,15,36,29.50
2017,08,03,15,37,29.50
2017,08,03,15,38,29.60
2017,08,03,15,39,29.70
2017,08,03,15,40,29.80
2017,08,03,15,41,29.80
2017,08,03,15,42,29.80
2017,08,03,15,43,29.80
2017,08,03,15,44,29.90
2017,08,03,15,45,29.90
2017,08,03,15,46,29.90
2017,08,03,15,47,29.90
2017,08,03,15,48,29.80
2017,08,03,15,49,29.90
2017,08,03,15,50,30.10
2017,08,03,15,51,30.20
2017,08,03,15,52,30.20
2017,08,03,15,53,30.20
2017,08,03,15,54,30.20
2017,08,03,15,55,30.30
2017,08,03,15,56,30.40
2017,08,03,15,57,30.50
2017,08,03,15,58,30.60
2017,08,03,15,59,30.70
2017,08,03,16,00,30.70
2017,08,03,16,01,30.60
2017,08,03,16,02,30.60
2017,08,03,16,03,30.60
2017,08,03,16,04,30.70
2017,08,03,16,05,30.80
2017,08,03,16,06,30.90
2017,08,03,16,07,30.90
2017,08,03,16,08,30.90
2017,08,03,16,09,31.00
2017,08,03,16,10,31.00
2017,08,03,16,11,31.00
2017,08,03,16,12,31.00
2017,08,03,16,13,31.00
2017,08,03,16,14,31.00
2017,08,03,16,15,31.10
2017,08,03,16,16,31.10
2017,08,03,16,17,31.20
2017,08,03,16,18,31.30
2017,08,03,16,19,31.30
2017,08,03,16,20,31.40
2017,08,03,16,21,31.50
2017,08,03,16,22,31.60
2017,08,03,16,23,31.70
2017,08,03,16,24,31.80
2017,08,03,16,25,31.90
2017,08,03,16,26,32.00
2017,08,03,16,27,32.00
2017,08,03,16,28,32.10
2017,08,03,16,29,32.10
2017,08,03,16,30,32.10
2017,08,03,16,31,32.10
2017,08,03,16,32,32.00
2017,08,03,16,33,31.90
2017,08,03,16,34,31.90
2017,08,03,16,35,31.80
2017,08,03,16,36,31.80
2017,08,03,16,37,31.70
2017,08,03,16,38,31.60
2017,08,03,16,39,31.60
2017,08,03,16,40,31.70
2017,08,03,16,41,31.70
2017,08,03,16,42,31.70
2017,08,03,16,43,31.80
2017,08,03,16,44,31.80
2017,08,03,16,45,31.80
2017,08,03,16,46,31.70
2017,08,03,16,47,31.60
2017,08,03,16,48,31.60
2017,08,03,16,49,31.60
2017,08,03,16,50,31.50
2017,08,03,16,51,31.50
2017,08,03,16,52,31.60
2017,08,03,16,53,31.60
2017,08,03,16,54,31.60
2017,08,03,16,55,31.70
2017,08,03,16,56,31.60
2017,08,03,16,57,31.60
2017,08,03,16,58,31.70
2017,08,03,16,59,31.70
2017,08,03,17,00,31.70
2017,08,03,17,01,31.70
2017,08,03,17,02,31.70
2017,08,03,17,03,31.60
2017,08,03,17,04,31.60
2017,08,03,17,05,31.70
2017,08,03,17,06,31.70
2017,08,03,17,07,31.70
2017,08,03,17,08,31.70
2017,08,03,17,09,31.70
2017,08,03,17,10,31.70
2017,08,03,17,11,31.70
2017,08,03,17,12,31.60
2017,08,03,17,13,31.60
2017,08,03,17,14,31.60
2017,08,03,17,15,31.60
2017,08,03,17,16,31.60
2017,08,03,17,17,31.50
2017,08,03,17,18,31.50
2017,08,03,17,19,31.40